| time (UTC) | temp F | wind direction | speed MPH | gust MPH | rain 1hr in | rain 24hr in | rain mn in | humidity % | barometer mb |
| 20260504024003 | 54 | 145 | 0.0 | 1.0 | 0.00 | 0.00 | 0.00 | 48 | 1002.0 |
| 20260504023714 | 54 | 145 | 0.0 | 1.0 | 0.00 | 0.00 | 0.00 | 49 | 1002.0 |
| 20260504023004 | 55 | 146 | 0.0 | 1.0 | 0.00 | 0.00 | 0.00 | 45 | 1002.0 |
| 20260504022504 | 56 | 175 | 1.0 | 2.0 | 0.00 | 0.00 | 0.00 | 43 | 1002.1 |
| 20260504022003 | 56 | 195 | 1.0 | 2.0 | 0.00 | 0.00 | 0.00 | 42 | 1002.0 |
| 20260504021504 | 57 | 259 | 0.0 | 1.0 | 0.00 | 0.00 | 0.00 | 41 | 1002.1 |
| 20260504021003 | 58 | 185 | 0.0 | 1.0 | 0.00 | 0.00 | 0.00 | 40 | 1002.1 |
| 20260504020504 | 59 | 165 | 0.0 | 1.0 | 0.00 | 0.00 | 0.00 | 39 | 1002.0 |
| 20260504020004 | 59 | 162 | 1.0 | 1.0 | 0.00 | 0.00 | 0.00 | 38 | 1002.0 |
| 20260504015503 | 60 | 173 | 1.0 | 3.0 | 0.00 | 0.00 | 0.00 | 38 | 1001.9 |
| 20260504015003 | 60 | 180 | 1.0 | 3.0 | 0.00 | 0.00 | 0.00 | 36 | 1002.0 |
| 20260504014504 | 60 | 178 | 1.0 | 2.0 | 0.00 | 0.00 | 0.00 | 36 | 1001.9 |
| 20260504014003 | 61 | 178 | 1.0 | 2.0 | 0.00 | 0.00 | 0.00 | 36 | 1002.0 |
| 20260504013503 | 61 | 174 | 1.0 | 2.0 | 0.00 | 0.00 | 0.00 | 35 | 1002.0 |
| 20260504013003 | 62 | 171 | 1.0 | 2.0 | 0.00 | 0.00 | 0.00 | 35 | 1002.0 |
| 20260504012503 | 62 | 172 | 1.0 | 3.0 | 0.00 | 0.00 | 0.00 | 35 | 1002.0 |
| 20260504012003 | 62 | 173 | 1.0 | 3.0 | 0.00 | 0.00 | 0.00 | 34 | 1002.0 |
| 20260504011504 | 63 | 177 | 1.0 | 2.0 | 0.00 | 0.00 | 0.00 | 33 | 1002.1 |
| 20260504011004 | 63 | 188 | 1.0 | 2.0 | 0.00 | 0.00 | 0.00 | 33 | 1002.1 |
| 20260504010504 | 64 | 207 | 1.0 | 3.0 | 0.00 | 0.00 | 0.00 | 32 | 1002.1 |
| 20260504010215 | 65 | 214 | 1.0 | 3.0 | 0.00 | 0.00 | 0.00 | 31 | 1002.2 |
| 20260504005713 | 65 | 203 | 1.0 | 3.0 | 0.00 | 0.00 | 0.00 | 31 | 1002.1 |
| 20260504005004 | 66 | 208 | 1.0 | 4.0 | 0.00 | 0.00 | 0.00 | 30 | 1002.2 |
| 20260504004503 | 66 | 224 | 1.0 | 4.0 | 0.00 | 0.00 | 0.00 | 30 | 1002.2 |
| 20260504004004 | 67 | 232 | 1.0 | 4.0 | 0.00 | 0.00 | 0.00 | 30 | 1002.2 |
| 20260504003504 | 67 | 231 | 2.0 | 6.0 | 0.00 | 0.00 | 0.00 | 28 | 1002.2 |
| 20260504003003 | 67 | 232 | 2.0 | 6.0 | 0.00 | 0.00 | 0.00 | 29 | 1002.3 |
| 20260504002503 | 67 | 247 | 1.0 | 4.0 | 0.00 | 0.00 | 0.00 | 28 | 1002.4 |
| 20260504002004 | 67 | 241 | 1.0 | 3.0 | 0.00 | 0.00 | 0.00 | 29 | 1002.5 |
| 20260504001503 | 67 | 241 | 2.0 | 4.0 | 0.00 | 0.00 | 0.00 | 29 | 1002.5 |
| 20260504001215 | 67 | 248 | 2.0 | 4.0 | 0.00 | 0.00 | 0.00 | 29 | 1002.4 |
| 20260504000504 | 66 | 274 | 1.0 | 5.0 | 0.00 | 0.00 | 0.00 | 28 | 1002.5 |
| 20260504000004 | 66 | 260 | 1.0 | 6.0 | 0.00 | 0.00 | 0.00 | 28 | 1002.5 |
| 20260503235714 | 67 | 244 | 1.0 | 6.0 | 0.00 | 0.00 | 0.00 | 28 | 1002.5 |
| 20260503235004 | 67 | 276 | 1.0 | 5.0 | 0.00 | 0.00 | 0.00 | 27 | 1002.4 |
| 20260503234715 | 68 | 281 | 2.0 | 6.0 | 0.00 | 0.00 | 0.00 | 27 | 1002.5 |
| 20260503234003 | 68 | 251 | 2.0 | 8.0 | 0.00 | 0.00 | 0.00 | 28 | 1002.5 |
| 20260503233716 | 68 | 259 | 2.0 | 8.0 | 0.00 | 0.00 | 0.00 | 27 | 1002.5 |
| 20260503233004 | 69 | 280 | 3.0 | 7.0 | 0.00 | 0.00 | 0.00 | 27 | 1002.5 |
| 20260503232504 | 68 | 255 | 2.0 | 7.0 | 0.00 | 0.00 | 0.00 | 27 | 1002.6 |
| 20260503232003 | 69 | 277 | 2.0 | 7.0 | 0.00 | 0.00 | 0.00 | 27 | 1002.7 |
| 20260503231503 | 69 | 297 | 3.0 | 9.0 | 0.00 | 0.00 | 0.00 | 27 | 1002.7 |
| 20260503231003 | 69 | 281 | 3.0 | 9.0 | 0.00 | 0.00 | 0.00 | 27 | 1002.7 |
| 20260503230503 | 69 | 269 | 3.0 | 8.0 | 0.00 | 0.00 | 0.00 | 27 | 1002.8 |
| 20260503230004 | 69 | 267 | 3.0 | 8.0 | 0.00 | 0.00 | 0.00 | 26 | 1002.7 |
| 20260503225504 | 69 | 277 | 3.0 | 11.0 | 0.00 | 0.00 | 0.00 | 26 | 1002.8 |
| 20260503225004 | 69 | 290 | 3.0 | 11.0 | 0.00 | 0.00 | 0.00 | 26 | 1002.9 |
| 20260503224503 | 69 | 303 | 4.0 | 9.0 | 0.00 | 0.00 | 0.00 | 25 | 1002.9 |
| 20260503224004 | 69 | 308 | 3.0 | 8.0 | 0.00 | 0.00 | 0.00 | 25 | 1002.9 |
| 20260503223716 | 70 | 305 | 3.0 | 8.0 | 0.00 | 0.00 | 0.00 | 25 | 1002.9 |
| 20260503223214 | 70 | 322 | 4.0 | 8.0 | 0.00 | 0.00 | 0.00 | 25 | 1003.0 |
| 20260503222503 | 70 | 326 | 4.0 | 12.0 | 0.00 | 0.00 | 0.00 | 25 | 1003.0 |
| 20260503222215 | 70 | 323 | 3.0 | 12.0 | 0.00 | 0.00 | 0.00 | 25 | 1002.9 |
| 20260503221503 | 70 | 319 | 4.0 | 9.0 | 0.00 | 0.00 | 0.00 | 24 | 1003.0 |
| 20260503221003 | 70 | 299 | 4.0 | 13.0 | 0.00 | 0.00 | 0.00 | 25 | 1002.9 |
| 20260503220504 | 70 | 275 | 4.0 | 13.0 | 0.00 | 0.00 | 0.00 | 24 | 1002.9 |
| 20260503220003 | 70 | 271 | 3.0 | 9.0 | 0.00 | 0.00 | 0.00 | 24 | 1003.0 |
| 20260503215503 | 70 | 281 | 4.0 | 15.0 | 0.00 | 0.00 | 0.00 | 26 | 1003.1 |
| 20260503215213 | 70 | 295 | 4.0 | 15.0 | 0.00 | 0.00 | 0.00 | 23 | 1003.1 |
| 20260503214716 | 70 | 328 | 3.0 | 8.0 | 0.00 | 0.00 | 0.00 | 24 | 1003.1 |
| 20260503214004 | 70 | 318 | 2.0 | 6.0 | 0.00 | 0.00 | 0.00 | 23 | 1003.2 |
| 20260503213504 | 70 | 322 | 2.0 | 6.0 | 0.00 | 0.00 | 0.00 | 23 | 1003.3 |
| 20260503213003 | 69 | 309 | 3.0 | 8.0 | 0.00 | 0.00 | 0.00 | 22 | 1003.3 |
| 20260503212503 | 70 | 317 | 4.0 | 12.0 | 0.00 | 0.00 | 0.00 | 25 | 1003.4 |
| 20260503212003 | 70 | 330 | 4.0 | 12.0 | 0.00 | 0.00 | 0.00 | 23 | 1003.4 |
| 20260503211503 | 69 | 329 | 4.0 | 11.0 | 0.00 | 0.00 | 0.00 | 24 | 1003.4 |
| 20260503211003 | 69 | 336 | 5.0 | 13.0 | 0.00 | 0.00 | 0.00 | 24 | 1003.5 |
| 20260503210504 | 69 | 334 | 5.0 | 13.0 | 0.00 | 0.00 | 0.00 | 24 | 1003.6 |
| 20260503210005 | 69 | 326 | 4.0 | 9.0 | 0.00 | 0.00 | 0.00 | 24 | 1003.6 |
| 20260503205716 | 69 | 330 | 5.0 | 9.0 | 0.00 | 0.00 | 0.00 | 29 | 1003.7 |
| 20260503205003 | 69 | 337 | 6.0 | 13.0 | 0.00 | 0.00 | 0.00 | 26 | 1003.7 |
| 20260503204503 | 68 | 336 | 6.0 | 13.0 | 0.00 | 0.00 | 0.00 | 23 | 1003.9 |
| 20260503204003 | 68 | 328 | 6.0 | 17.0 | 0.00 | 0.00 | 0.00 | 26 | 1003.8 |
| 20260503203503 | 68 | 319 | 5.0 | 17.0 | 0.00 | 0.00 | 0.00 | 23 | 1003.8 |
| 20260503203004 | 69 | 302 | 4.0 | 10.0 | 0.00 | 0.00 | 0.00 | 22 | 1003.8 |
| 20260503202504 | 69 | 297 | 4.0 | 10.0 | 0.00 | 0.00 | 0.00 | 22 | 1003.9 |
| 20260503202217 | 69 | 302 | 4.0 | 10.0 | 0.00 | 0.00 | 0.00 | 23 | 1003.9 |
| 20260503201715 | 69 | 312 | 4.0 | 13.0 | 0.00 | 0.00 | 0.00 | 22 | 1004.0 |
| 20260503201003 | 68 | 327 | 5.0 | 13.0 | 0.00 | 0.00 | 0.00 | 22 | 1004.0 |
| 20260503200503 | 68 | 319 | 6.0 | 11.0 | 0.00 | 0.00 | 0.00 | 21 | 1004.0 |
| 20260503200003 | 69 | 304 | 5.0 | 13.0 | 0.00 | 0.00 | 0.00 | 21 | 1004.0 |
| 20260503195504 | 68 | 301 | 5.0 | 13.0 | 0.00 | 0.00 | 0.00 | 20 | 1004.1 |
| 20260503195003 | 68 | 299 | 5.0 | 11.0 | 0.00 | 0.00 | 0.00 | 25 | 1004.1 |
| 20260503194718 | 68 | 307 | 5.0 | 10.0 | 0.00 | 0.00 | 0.00 | 22 | 1004.1 |
| 20260503194003 | 69 | 326 | 6.0 | 13.0 | 0.00 | 0.00 | 0.00 | 25 | 1004.0 |
| 20260503193503 | 68 | 320 | 5.0 | 13.0 | 0.00 | 0.00 | 0.00 | 24 | 1004.2 |
| 20260503193216 | 69 | 325 | 6.0 | 15.0 | 0.00 | 0.00 | 0.00 | 22 | 1004.2 |
| 20260503192714 | 69 | 323 | 6.0 | 15.0 | 0.00 | 0.00 | 0.00 | 24 | 1004.2 |
| 20260503192004 | 68 | 310 | 5.0 | 13.0 | 0.00 | 0.00 | 0.00 | 24 | 1004.2 |
| 20260503191504 | 68 | 319 | 6.0 | 13.0 | 0.00 | 0.00 | 0.00 | 25 | 1004.4 |
| 20260503191004 | 68 | 327 | 6.0 | 13.0 | 0.00 | 0.00 | 0.00 | 27 | 1004.3 |
| 20260503190504 | 69 | 323 | 6.0 | 13.0 | 0.00 | 0.00 | 0.00 | 27 | 1004.4 |
| 20260503190004 | 68 | 329 | 7.0 | 15.0 | 0.00 | 0.00 | 0.00 | 27 | 1004.4 |
| 20260503185503 | 68 | 333 | 7.0 | 15.0 | 0.00 | 0.00 | 0.00 | 29 | 1004.4 |
| 20260503185215 | 68 | 332 | 6.0 | 15.0 | 0.00 | 0.00 | 0.00 | 26 | 1004.4 |
| 20260503184504 | 68 | 325 | 6.0 | 15.0 | 0.00 | 0.00 | 0.00 | 23 | 1004.4 |
| 20260503184004 | 68 | 325 | 6.0 | 15.0 | 0.00 | 0.00 | 0.00 | 26 | 1004.4 |
| 20260503183504 | 68 | 329 | 6.0 | 14.0 | 0.00 | 0.00 | 0.00 | 28 | 1004.4 |
| 20260503183004 | 68 | 325 | 5.0 | 14.0 | 0.00 | 0.00 | 0.00 | 29 | 1004.4 |
| 20260503182503 | 68 | 320 | 6.0 | 13.0 | 0.00 | 0.00 | 0.00 | 31 | 1004.5 |
| 20260503182005 | 67 | 322 | 6.0 | 13.0 | 0.00 | 0.00 | 0.00 | 30 | 1004.6 |
| 20260503181504 | 68 | 329 | 6.0 | 16.0 | 0.00 | 0.00 | 0.00 | 30 | 1004.7 |
| 20260503181214 | 67 | 331 | 7.0 | 16.0 | 0.00 | 0.00 | 0.00 | 27 | 1004.8 |
| 20260503180503 | 67 | 331 | 7.0 | 15.0 | 0.00 | 0.00 | 0.00 | 32 | 1004.8 |
| 20260503180215 | 67 | 330 | 7.0 | 15.0 | 0.00 | 0.00 | 0.00 | 30 | 1004.8 |
| 20260503175504 | 67 | 324 | 6.0 | 14.0 | 0.00 | 0.00 | 0.00 | 34 | 1004.7 |
| 20260503175003 | 67 | 329 | 6.0 | 14.0 | 0.00 | 0.00 | 0.00 | 32 | 1004.8 |
| 20260503174503 | 67 | 324 | 6.0 | 14.0 | 0.00 | 0.00 | 0.00 | 38 | 1004.7 |
| 20260503174217 | 67 | 316 | 6.0 | 14.0 | 0.00 | 0.00 | 0.00 | 38 | 1004.7 |
| 20260503173715 | 67 | 312 | 6.0 | 14.0 | 0.00 | 0.00 | 0.00 | 38 | 1004.6 |
| 20260503173218 | 67 | 325 | 6.0 | 14.0 | 0.00 | 0.00 | 0.00 | 38 | 1004.7 |
| 20260503172504 | 67 | 323 | 6.0 | 13.0 | 0.00 | 0.00 | 0.00 | 40 | 1004.7 |
| 20260503172214 | 67 | 326 | 6.0 | 14.0 | 0.00 | 0.00 | 0.00 | 41 | 1004.8 |
| 20260503171717 | 67 | 323 | 5.0 | 14.0 | 0.00 | 0.00 | 0.00 | 43 | 1004.9 |
| 20260503171003 | 67 | 306 | 5.0 | 13.0 | 0.00 | 0.00 | 0.00 | 42 | 1004.8 |
| 20260503170503 | 68 | 320 | 6.0 | 13.0 | 0.00 | 0.00 | 0.00 | 40 | 1004.8 |
| 20260503151004 | 63 | 333 | 5.0 | 10.0 | 0.00 | 0.00 | 0.00 | 47 | 1004.6 |
| 20260503150504 | 63 | 334 | 5.0 | 13.0 | 0.00 | 0.00 | 0.00 | 47 | 1004.6 |
| 20260503131004 | 58 | 246 | 1.0 | 3.0 | 0.00 | 0.00 | 0.00 | 55 | 1004.2 |
| 20260503130503 | 58 | 247 | 1.0 | 3.0 | 0.00 | 0.00 | 0.00 | 55 | 1004.2 |
| 20260503110504 | 41 | 145 | 0.0 | 1.0 | 0.00 | 0.00 | 0.00 | 84 | 1003.2 |
| 20260503081503 | 52 | 149 | 1.0 | 2.0 | 0.00 | 0.00 | 0.00 | 60 | 1003.8 |
| 20260503081004 | 52 | 148 | 1.0 | 3.0 | 0.00 | 0.00 | 0.00 | 60 | 1003.8 |
| 20260503080713 | 52 | 146 | 1.0 | 3.0 | 0.00 | 0.00 | 0.00 | 60 | 1003.9 |
| 20260503072504 | 54 | 149 | 2.0 | 4.0 | 0.00 | 0.00 | 0.00 | 56 | 1004.3 |
| 20260503072215 | 54 | 152 | 2.0 | 4.0 | 0.00 | 0.00 | 0.00 | 56 | 1004.4 |
| 20260503071504 | 54 | 154 | 3.0 | 5.0 | 0.00 | 0.00 | 0.00 | 55 | 1004.5 |
| 20260503071004 | 54 | 154 | 3.0 | 5.0 | 0.00 | 0.00 | 0.00 | 55 | 1004.6 |
| 20260503070503 | 54 | 152 | 3.0 | 6.0 | 0.00 | 0.00 | 0.00 | 54 | 1004.7 |
| 20260503070217 | 54 | 152 | 3.0 | 6.0 | 0.00 | 0.00 | 0.00 | 54 | 1004.8 |
| 20260503055004 | 56 | 154 | 5.0 | 9.0 | 0.00 | 0.00 | 0.00 | 50 | 1005.9 |
| 20260503054503 | 56 | 151 | 4.0 | 6.0 | 0.00 | 0.00 | 0.00 | 51 | 1006.0 |
| 20260503054004 | 56 | 150 | 4.0 | 6.0 | 0.00 | 0.00 | 0.00 | 51 | 1006.0 |
| 20260503053503 | 56 | 148 | 4.0 | 6.0 | 0.00 | 0.00 | 0.00 | 50 | 1005.9 |
| 20260503053004 | 57 | 149 | 4.0 | 6.0 | 0.00 | 0.00 | 0.00 | 50 | 1006.0 |
| 20260503052713 | 57 | 150 | 4.0 | 6.0 | 0.00 | 0.00 | 0.00 | 49 | 1006.1 |
| 20260503052216 | 57 | 148 | 4.0 | 8.0 | 0.00 | 0.00 | 0.00 | 49 | 1006.1 |
| 20260503051714 | 58 | 149 | 4.0 | 8.0 | 0.00 | 0.00 | 0.00 | 49 | 1006.1 |
| 20260503051003 | 58 | 148 | 3.0 | 6.0 | 0.00 | 0.00 | 0.00 | 49 | 1006.2 |
| 20260503050504 | 57 | 147 | 2.0 | 5.0 | 0.00 | 0.00 | 0.00 | 49 | 1006.3 |
| 20260503050006 | 57 | 148 | 2.0 | 5.0 | 0.00 | 0.00 | 0.00 | 49 | 1006.3 |
| 20260503045503 | 58 | 152 | 2.0 | 4.0 | 0.00 | 0.00 | 0.00 | 49 | 1006.5 |
| 20260503045004 | 58 | 156 | 3.0 | 4.0 | 0.00 | 0.00 | 0.00 | 49 | 1006.5 |
| 20260503044504 | 57 | 160 | 3.0 | 4.0 | 0.00 | 0.00 | 0.00 | 49 | 1006.5 |
| 20260503044003 | 57 | 161 | 3.0 | 4.0 | 0.00 | 0.00 | 0.00 | 49 | 1006.6 |
| 20260503043503 | 57 | 153 | 3.0 | 4.0 | 0.00 | 0.00 | 0.00 | 49 | 1006.6 |
| 20260503043004 | 57 | 150 | 3.0 | 5.0 | 0.00 | 0.00 | 0.00 | 50 | 1006.5 |
| 20260503042504 | 58 | 157 | 3.0 | 5.0 | 0.00 | 0.00 | 0.00 | 49 | 1006.7 |
| 20260503042003 | 58 | 165 | 3.0 | 6.0 | 0.00 | 0.00 | 0.00 | 48 | 1006.8 |
| 20260503041715 | 58 | 165 | 3.0 | 6.0 | 0.00 | 0.00 | 0.00 | 48 | 1006.9 |
| 20260503041004 | 58 | 158 | 3.0 | 6.0 | 0.00 | 0.00 | 0.00 | 48 | 1007.0 |
| 20260503040716 | 58 | 157 | 3.0 | 6.0 | 0.00 | 0.00 | 0.00 | 48 | 1007.0 |
| 20260503040219 | 58 | 156 | 4.0 | 5.0 | 0.00 | 0.00 | 0.00 | 48 | 1007.1 |
| 20260503035503 | 58 | 180 | 2.0 | 6.0 | 0.00 | 0.00 | 0.00 | 49 | 1007.1 |
| 20260503035004 | 57 | 180 | 1.0 | 6.0 | 0.00 | 0.00 | 0.00 | 52 | 1007.3 |
| 20260503034503 | 57 | 168 | 1.0 | 2.0 | 0.00 | 0.00 | 0.00 | 53 | 1007.4 |
| 20260503034004 | 57 | 159 | 1.0 | 2.0 | 0.00 | 0.00 | 0.00 | 53 | 1007.5 |
| 20260503033504 | 58 | 152 | 1.0 | 2.0 | 0.00 | 0.00 | 0.00 | 50 | 1007.6 |
| 20260503033003 | 59 | 149 | 1.0 | 1.0 | 0.00 | 0.00 | 0.00 | 48 | 1007.8 |
| 20260503032503 | 59 | 149 | 1.0 | 1.0 | 0.00 | 0.00 | 0.00 | 45 | 1007.9 |
| 20260503032217 | 60 | 150 | 0.0 | 1.0 | 0.00 | 0.00 | 0.00 | 45 | 1007.9 |
| 20260503031504 | 60 | 171 | 1.0 | 2.0 | 0.00 | 0.00 | 0.00 | 44 | 1008.1 |
| 20260503031004 | 60 | 189 | 1.0 | 2.0 | 0.00 | 0.00 | 0.00 | 43 | 1008.2 |
| 20260503030504 | 60 | 214 | 1.0 | 3.0 | 0.00 | 0.00 | 0.00 | 43 | 1008.3 |
| 20260503030214 | 61 | 222 | 1.0 | 3.0 | 0.00 | 0.00 | 0.00 | 43 | 1008.3 |
| 20260503025503 | 61 | 219 | 2.0 | 5.0 | 0.00 | 0.00 | 0.00 | 42 | 1008.3 |
| 20260503025003 | 61 | 216 | 2.0 | 6.0 | 0.00 | 0.00 | 0.00 | 42 | 1008.3 |
| 20260503024503 | 61 | 223 | 3.0 | 6.0 | 0.00 | 0.00 | 0.00 | 41 | 1008.4 |